GEFSSGP_500_meanwind_216.txt.gz
Wind_Speed
1 1 1 1 1 2 2 3 3 3 3 3 3 4 3 2 3 3 2 2 2 2 2 2 2 2 2 2 2 2 2 2 2 2 2 2 2 2 2 2 2 2 2 3 3 4 4 6 6
2 2 2 2 2 3 3 3 4 4 4 4 4 4 4 3 3 3 3 3 2 2 2 2 2 2 3 3 3 3 3 3 2 2 3 3 2 3 3 3 3 3 2 2 3 4 5 6 7
4 4 4 4 4 4 4 4 4 4 4 4 4 5 5 4 4 4 4 3 3 3 3 3 3 3 3 4 3 3 4 3 3 3 3 4 3 3 3 4 4 3 3 3 4 4 5 6 7
4 4 5 5 5 5 5 5 5 5 5 5 5 5 5 5 5 5 5 5 5 5 4 4 3 3 4 4 4 4 4 4 4 4 5 5 5 4 4 4 4 4 4 4 4 5 5 6 7
5 5 5 6 6 6 6 6 6 5 5 5 5 6 6 6 5 5 6 6 6 6 5 5 5 4 4 5 5 5 5 5 5 5 5 5 5 5 5 4 4 5 5 5 5 5 5 5 7
5 5 6 6 6 7 7 7 7 6 6 6 6 6 7 7 7 7 6 6 6 6 7 6 6 5 6 5 5 5 5 5 5 6 5 5 5 5 5 5 5 5 6 5 5 5 6 6 7
6 6 6 6 6 7 7 7 7 7 7 7 7 7 8 8 7 7 7 7 8 7 7 8 8 7 7 6 5 5 6 6 6 6 5 5 5 5 5 5 6 6 5 5 5 5 7 7 7
5 6 6 6 6 7 7 7 8 8 8 8 8 9 9 9 8 8 8 8 8 8 8 9 9 8 7 7 6 6 6 6 6 6 5 5 6 6 6 6 6 6 5 5 5 5 6 7 7
5 5 6 6 6 7 7 7 7 8 8 9 9 10 11 10 10 10 9 8 9 9 9 9 9 8 8 7 7 7 6 7 7 6 6 6 6 6 6 6 6 6 6 6 5 6 6 7 7
4 5 5 5 6 7 7 8 8 7 8 8 9 10 10 10 10 10 10 10 10 10 9 9 9 9 8 7 7 8 7 6 6 6 6 6 6 6 6 6 6 6 6 7 7 7 7 7 7
4 4 5 5 5 6 7 6 7 7 7 8 9 9 8 9 10 10 10 9 10 10 10 9 9 9 9 8 8 7 7 6 6 6 5 5 6 6 6 6 6 6 6 6 7 7 6 7 7
3 3 4 4 5 5 5 5 6 6 7 8 9 9 8 8 9 9 9 9 9 9 10 9 9 8 8 8 8 7 6 6 6 6 6 6 6 6 6 6 6 6 6 6 7 7 7 6 6
3 3 3 4 4 5 5 5 6 6 7 8 8 8 9 8 8 8 8 9 9 9 9 10 9 8 8 9 8 8 7 8 7 7 6 6 6 6 6 5 6 6 6 7 7 6 6 6 6
3 3 3 4 5 4 5 5 6 7 7 7 8 8 8 9 9 9 9 8 9 9 9 10 9 9 9 8 8 9 8 8 8 7 7 7 6 6 6 6 5 6 6 6 6 5 5 5 6
3 3 3 5 5 5 4 5 5 6 7 7 7 8 8 8 8 9 9 9 9 9 9 9 8 9 9 8 8 9 9 8 8 8 8 7 7 7 6 6 5 6 5 5 5 5 5 6 6
3 3 4 5 5 4 5 5 6 6 7 7 7 7 8 8 9 9 9 9 9 8 8 8 8 8 8 8 9 9 8 8 8 8 7 6 7 7 6 6 6 6 6 6 5 5 5 6 6
3 4 4 4 4 5 5 5 6 6 6 6 7 7 7 7 7 7 8 8 8 9 9 7 8 7 8 8 8 8 8 8 8 8 7 6 6 6 6 6 7 6 6 6 6 5 6 5 6
4 4 4 4 5 5 6 6 6 7 7 6 7 7 6 6 6 6 7 7 7 8 9 8 9 8 7 7 7 7 7 8 7 7 7 6 6 6 6 6 6 6 6 6 6 6 6 6 6
4 4 5 5 5 6 6 7 7 7 6 6 7 7 6 6 6 6 7 7 7 7 8 8 8 7 7 7 7 7 7 6 6 6 6 6 6 6 5 5 5 5 5 6 6 6 6 6 6
5 5 5 5 5 6 6 7 7 7 7 7 7 7 7 6 6 6 6 6 6 6 6 6 6 6 6 7 7 6 6 6 6 6 6 6 5 5 5 4 4 5 4 5 5 6 6 6 6
4 5 6 6 7 7 7 7 6 7 6 7 7 7 7 7 7 7 6 6 5 5 5 5 4 5 5 6 6 6 5 5 5 4 4 4 4 4 4 4 4 3 3 4 4 5 5 5 6
5 6 6 6 6 6 6 6 6 6 6 7 7 8 8 7 7 6 6 6 5 5 5 5 5 4 4 5 5 5 5 4 4 4 4 3 3 3 3 3 3 3 4 4 4 4 4 4 5
6 6 5 6 6 6 6 6 6 6 7 7 8 8 8 7 6 6 6 6 6 6 6 6 5 5 5 5 5 5 5 4 4 3 3 3 3 3 3 3 3 3 3 3 4 5 5 4 5
7 6 6 6 6 6 6 6 6 7 7 8 8 8 7 6 6 6 6 6 6 6 6 6 5 5 5 5 5 5 5 4 4 4 4 4 3 3 3 3 3 3 3 4 4 4 5 5 5
8 7 7 7 7 7 7 7 7 8 8 8 7 7 6 6 6 6 6 6 6 6 6 5 5 5 5 5 5 5 4 4 4 4 4 4 4 4 4 4 3 4 4 4 5 5 5 5 5
9 8 8 7 7 8 7 7 8 8 8 8 7 6 6 6 6 5 6 5 5 6 6 6 6 5 5 5 5 5 5 5 5 4 4 4 4 4 4 4 4 4 4 5 5 6 6 6 6
10 9 9 9 9 8 8 8 8 8 8 8 7 6 5 6 6 6 6 5 6 5 5 5 6 6 5 5 6 6 6 5 5 5 5 4 5 4 4 4 4 4 4 5 6 6 6 6 7
11 11 10 10 10 9 9 8 8 8 8 8 7 6 6 6 6 6 5 5 5 5 5 4 5 5 5 5 6 6 6 6 6 6 5 5 5 5 5 5 5 5 5 6 6 6 7 7 7
12 12 11 12 11 10 10 9 8 8 8 8 8 7 7 6 6 6 6 5 4 5 5 5 5 6 6 6 6 7 7 7 7 6 5 5 5 5 5 5 5 6 6 6 7 7 7 6 7
13 13 13 13 12 12 11 10 10 9 9 9 8 8 7 7 7 7 6 5 5 5 5 5 6 6 6 7 7 7 7 7 7 6 5 5 5 5 5 5 5 5 5 6 6 6 6 7 7

GEFSSGP_500_meanwind_222.txt.gz
Wind_Speed
1 1 1 2 2 1 2 3 4 4 5 5 5 5 5 6 6 6 6 5 5 4 4 4 4 4 4 4 3 4 4 4 4 4 4 4 4 4 4 4 4 3 3 4 4 5 5 6 6
2 2 2 3 3 2 3 4 5 5 5 5 5 6 6 7 7 7 7 6 5 5 5 4 4 4 4 4 4 5 5 5 5 5 5 5 5 5 4 4 4 4 4 4 5 5 6 7 7
3 3 3 4 4 3 4 5 5 5 6 6 6 6 7 7 8 8 8 7 6 6 5 5 4 5 4 4 5 5 6 6 5 5 5 5 5 4 4 4 5 4 4 4 5 6 7 7 8
4 4 4 4 4 5 6 6 5 6 6 6 7 7 8 8 8 8 8 8 8 7 7 7 6 6 5 6 6 6 6 5 5 6 6 5 4 4 4 5 5 5 5 5 5 6 7 8 8
4 4 3 4 5 5 6 6 6 7 7 7 7 8 8 9 9 9 9 8 9 9 8 8 8 7 7 7 7 6 6 6 6 6 6 6 5 4 5 5 5 5 5 5 5 6 6 7 8
4 4 4 4 5 6 6 7 7 7 8 8 8 8 8 9 9 10 9 9 9 9 9 9 9 9 8 8 7 7 6 6 6 7 7 6 6 5 5 5 5 5 5 5 6 6 6 7 8
5 4 5 5 6 6 6 7 8 8 8 8 8 8 9 9 10 10 10 10 10 10 10 10 10 10 9 8 8 8 7 7 7 7 7 7 7 6 5 5 5 6 6 5 6 6 6 7 7
4 5 5 6 7 7 7 7 7 8 8 9 9 9 9 9 10 11 10 10 10 10 10 11 10 9 9 9 8 8 8 8 7 7 7 8 7 6 6 6 6 5 6 6 6 7 7 7 7
5 5 6 7 7 7 6 7 8 8 8 9 9 9 10 10 11 11 11 11 11 10 10 11 10 9 9 9 9 8 8 8 8 8 8 8 7 7 7 7 7 7 7 7 7 8 8 8 8
5 5 6 7 7 7 7 7 8 8 8 8 9 9 10 10 10 11 11 11 11 10 10 11 10 10 9 9 9 9 9 8 8 8 8 8 8 8 7 7 8 8 8 8 8 8 8 8 8
4 5 6 6 7 7 7 7 8 8 9 9 9 10 9 10 11 11 11 10 10 10 10 10 9 9 9 9 9 9 9 8 8 8 8 8 8 8 8 7 8 8 8 8 8 8 9 8 9
4 4 5 5 6 7 8 8 8 9 9 9 9 9 10 10 10 10 10 10 10 10 10 10 9 9 9 9 9 9 9 9 9 9 9 8 8 7 7 7 8 8 7 7 8 8 8 8 8
4 4 5 5 6 7 8 7 8 8 8 9 10 10 10 10 9 10 10 10 10 9 10 10 10 9 9 9 9 9 9 10 10 9 9 8 8 8 7 8 8 7 7 8 7 7 8 7 7
4 4 5 6 6 7 7 7 7 7 8 9 10 10 10 10 9 9 10 10 9 9 10 10 9 8 8 9 9 9 9 9 10 10 9 9 8 8 8 8 7 7 7 6 7 7 7 7 7
4 5 6 6 6 6 7 6 6 7 8 9 9 10 10 9 9 9 9 10 10 9 9 9 9 9 9 9 9 8 9 9 9 10 10 9 9 8 8 7 7 6 6 6 6 6 6 6 7
4 5 6 6 6 6 6 6 7 7 8 9 9 9 9 9 9 8 8 9 9 9 8 9 9 9 9 9 9 9 9 9 9 9 9 10 9 8 8 7 7 7 7 7 7 6 6 6 6
5 6 6 6 6 6 7 7 7 8 8 9 9 9 9 9 9 8 8 9 9 9 9 9 9 8 8 9 9 9 9 9 9 9 9 9 9 8 8 7 7 7 7 7 7 6 7 7 7
5 6 6 7 7 7 8 8 8 8 8 8 9 9 9 10 9 8 8 8 8 9 9 8 8 8 8 9 8 8 8 8 8 8 8 9 8 8 7 7 7 6 6 6 6 6 6 7 7
7 7 6 7 7 8 8 8 8 8 9 9 9 9 9 9 9 8 8 8 8 8 9 8 9 8 8 8 7 7 7 7 7 7 7 7 6 6 6 6 6 6 6 6 6 6 6 6 6
7 8 7 7 8 8 8 9 8 9 9 10 9 10 9 9 9 8 8 8 8 8 8 8 8 7 7 6 6 6 6 6 6 5 5 5 5 5 5 5 5 5 5 5 5 5 5 5 5
7 7 7 7 8 8 8 9 9 9 9 9 10 10 9 9 9 9 8 8 7 8 8 8 8 7 6 5 5 5 5 4 5 4 4 4 4 5 4 4 4 4 5 4 4 5 5 5 4
8 7 7 7 8 8 8 8 9 9 10 11 11 10 10 10 10 10 8 8 8 8 8 9 7 6 5 4 4 4 4 4 4 4 3 3 4 4 3 4 3 4 4 4 5 5 4 4 5
9 8 7 7 7 7 7 8 8 10 10 10 11 11 11 10 10 9 8 8 8 8 8 7 7 6 5 4 4 4 4 4 4 4 3 3 3 3 4 4 3 3 3 4 4 4 4 4 5
9 9 8 7 7 7 7 9 9 10 11 11 11 11 11 10 9 8 7 7 7 7 7 7 7 7 5 4 4 4 4 4 4 4 4 4 3 3 4 3 3 3 4 4 4 4 4 5 5
9 8 7 7 7 8 9 10 10 10 11 11 12 11 10 9 8 8 7 7 7 7 7 7 7 7 5 5 4 4 4 4 4 4 4 4 3 3 3 3 4 4 4 4 4 4 5 5 6
9 9 8 7 7 8 10 12 11 11 11 11 11 11 10 9 9 8 8 7 7 7 7 7 7 7 6 5 5 5 5 5 5 5 5 4 4 4 4 4 5 5 5 5 5 5 5 5 5
10 10 9 8 8 8 10 13 13 12 12 12 11 11 10 9 9 9 8 8 7 8 8 7 7 6 5 5 5 5 6 6 5 6 5 5 5 5 5 5 4 5 5 5 5 5 5 5 6
12 11 11 10 10 9 10 12 13 13 13 13 12 12 10 9 9 9 8 8 8 8 8 7 7 6 5 5 5 5 5 5 5 6 6 6 5 5 5 5 5 5 5 6 6 6 6 7 7
13 13 13 12 11 10 10 12 13 14 14 14 13 12 11 10 9 9 9 9 8 8 8 7 6 6 5 5 5 5 6 6 6 6 6 6 6 5 5 6 6 6 6 7 7 7 6 7 7
15 14 14 14 13 12 13 14 14 14 15 14 14 13 12 11 10 10 9 9 9 8 8 8 7 7 6 6 6 7 7 7 7 7 7 7 7 6 6 7 6 6 6 7 7 7 7 7 7

GEFSSGP_500_meanwind_228.txt.gz
Wind_Speed
1 0 1 1 1 1 1 1 1 1 2 2 3 3 3 4 4 4 4 5 5 4 4 3 3 3 3 3 3 3 3 4 4 5 5 5 5 5 6 6 7 7 7 7 7 7 7 7 7
1 1 2 2 1 1 1 1 1 1 2 3 3 3 4 4 4 5 5 5 5 5 4 3 3 3 3 3 3 4 4 5 5 6 6 6 5 5 6 7 7 8 7 7 8 8 8 8 8
2 2 2 2 1 2 1 1 2 2 3 3 3 3 4 4 5 5 6 6 6 6 5 4 4 4 4 4 5 5 5 5 6 6 6 6 6 6 6 7 8 8 8 8 8 9 9 9 9
2 3 3 3 2 2 1 1 1 2 3 3 3 4 4 4 5 6 6 7 6 6 5 5 5 5 5 6 6 6 6 6 6 7 7 6 6 6 6 7 7 8 8 8 8 8 9 9 9
3 3 4 3 3 2 2 2 2 3 3 4 4 4 5 5 6 6 6 7 7 6 7 7 7 7 7 6 7 6 6 7 7 7 7 7 7 6 6 6 7 8 8 8 8 8 9 9 9
2 3 4 4 3 2 2 3 3 3 4 4 5 5 5 6 6 7 7 7 7 7 8 7 8 8 8 8 8 8 7 7 7 7 7 7 7 7 6 6 6 7 7 7 8 8 8 10 10
2 3 3 3 3 2 2 3 3 3 3 4 5 5 6 6 6 7 7 7 7 8 8 9 9 9 9 8 9 9 8 8 7 7 8 7 7 7 7 7 7 6 7 7 8 8 8 8 9
2 2 2 3 2 2 3 3 3 4 4 4 5 5 6 6 7 7 7 7 7 8 8 8 9 9 9 9 9 9 9 8 8 8 8 8 8 8 8 9 8 7 7 8 8 8 9 8 9
2 2 2 3 3 3 3 3 3 4 5 5 5 6 6 7 7 7 7 6 7 8 8 8 9 9 8 9 8 8 8 8 8 8 8 8 9 9 10 9 9 9 8 8 8 9 10 10 10
2 3 3 3 3 3 3 3 4 4 4 5 5 6 6 7 7 7 7 7 7 7 7 8 8 8 7 8 8 8 8 8 8 8 8 9 9 9 10 9 9 9 9 9 9 9 9 10 11
3 3 3 3 3 4 4 5 5 5 5 5 6 6 6 7 8 8 7 7 7 7 7 7 7 7 7 8 8 8 8 8 8 9 9 9 9 9 9 9 9 9 9 9 10 10 9 10 10
3 3 4 4 4 5 5 5 5 5 5 6 6 6 7 7 8 8 8 8 8 8 8 8 8 7 8 7 8 8 8 8 9 9 9 8 8 9 9 8 8 9 9 9 10 10 10 10 10
3 3 4 4 4 5 5 6 6 6 6 6 6 7 8 8 8 9 9 9 9 8 8 7 7 8 7 7 7 8 8 8 9 9 8 9 9 9 9 9 8 9 9 9 10 10 10 10 10
3 4 5 4 5 4 5 6 6 5 5 6 6 7 8 8 8 9 9 9 9 8 8 7 7 7 7 7 7 7 8 8 8 8 8 9 9 9 8 8 8 8 9 9 9 10 9 9 9
4 5 5 5 4 4 4 4 5 5 5 6 6 7 8 8 8 8 8 8 8 8 7 7 7 7 7 7 7 7 7 8 8 7 7 8 8 7 8 8 8 8 8 9 9 9 10 9 10
5 5 5 4 4 4 4 4 5 5 5 6 6 7 7 8 8 7 7 7 7 7 7 7 6 6 6 6 7 7 7 7 8 8 7 7 7 7 7 8 8 8 8 8 8 9 10 9 9
5 5 4 4 3 4 4 5 5 5 6 6 6 7 7 7 7 7 7 7 7 7 7 6 6 6 6 6 6 6 7 7 8 7 7 7 7 7 7 7 7 7 8 8 8 8 8 8 8
5 5 4 4 4 4 5 4 5 5 6 5 6 7 8 8 7 8 7 6 6 6 6 6 6 5 5 6 6 6 6 7 7 6 6 6 6 6 7 7 7 7 7 7 7 7 7 7 8
5 5 5 4 4 4 4 3 4 5 6 6 7 7 7 7 7 8 7 7 6 6 7 6 5 5 5 5 5 5 5 6 6 6 6 6 6 5 5 6 6 6 6 6 6 6 6 7 7
6 6 6 5 4 3 3 3 4 4 5 6 7 7 7 7 7 7 7 7 6 6 6 6 6 6 5 5 5 4 5 4 4 4 4 4 4 4 3 4 4 4 5 5 5 6 6 7 7
6 6 5 5 5 5 4 4 4 4 6 6 7 7 6 7 7 7 7 6 6 6 6 6 6 6 5 5 5 4 4 4 3 3 2 2 2 3 3 3 3 3 4 5 5 5 6 6 6
7 6 6 6 6 5 4 4 4 5 6 6 7 7 6 7 7 7 7 6 6 6 6 6 6 5 5 4 4 4 4 3 3 2 1 1 2 2 3 2 2 3 4 4 4 4 4 4 5
7 7 8 7 6 6 5 5 4 5 5 6 7 7 6 6 7 7 7 7 6 6 6 6 6 5 5 4 4 3 3 3 3 2 2 3 3 2 2 3 2 2 3 3 4 4 4 4 4
8 8 8 8 7 7 6 5 4 5 5 5 6 7 7 6 7 7 7 7 7 6 5 5 5 5 5 4 3 3 2 2 2 3 3 3 3 2 3 3 3 3 3 3 4 4 4 4 4
9 9 9 9 7 7 6 6 5 4 5 6 6 7 7 7 6 7 7 7 7 6 6 5 5 5 5 4 3 3 3 3 3 3 3 4 4 3 3 4 4 3 3 3 4 4 5 5 5
10 10 9 9 8 8 8 7 6 5 5 5 6 7 7 7 6 7 7 7 7 7 6 6 6 6 5 4 4 4 3 3 3 3 3 4 4 3 3 4 4 4 4 4 4 5 5 4 4
11 10 10 10 10 11 11 9 8 7 7 6 7 7 7 7 7 6 7 7 7 7 7 6 6 6 5 4 4 4 4 3 3 3 4 4 5 5 4 4 4 4 4 4 4 4 4 4 5
12 12 11 11 11 12 11 10 9 9 8 8 8 8 8 8 7 7 6 6 6 7 7 7 6 6 5 4 4 4 4 4 4 4 5 5 5 5 5 5 5 5 5 5 4 5 5 6 7
13 14 13 13 13 14 14 12 10 10 10 10 9 8 8 8 8 7 7 6 7 7 7 7 7 6 5 5 5 4 5 5 5 5 5 5 5 5 5 5 5 5 6 6 6 6 6 7 7
13 14 14 14 14 15 14 13 11 11 11 11 9 9 8 8 8 8 7 7 7 7 7 7 7 6 6 5 5 5 5 5 5 5 5 6 6 6 6 6 6 7 7 7 8 8 7 7 8

GEFSSGP_500_meanwind_234.txt.gz
Wind_Speed
3 2 2 2 1 2 2 2 1 2 3 3 3 3 3 3 3 3 4 4 4 4 5 4 4 4 4 4 4 3 3 3 3 4 4 4 5 4 4 4 5 5 5 6 6 6 6 6 6
3 3 2 2 2 2 2 2 2 3 3 3 3 3 3 3 4 4 4 4 5 5 5 5 5 5 5 4 4 4 4 4 4 4 5 5 5 5 5 5 5 6 6 7 7 7 6 6 7
3 3 3 3 3 3 2 2 3 3 3 3 3 4 4 4 4 5 5 5 6 6 6 5 5 6 5 6 6 6 6 6 6 5 5 5 5 5 5 6 6 6 6 7 6 7 7 6 7
4 3 3 3 3 3 3 3 3 3 3 3 4 4 4 4 5 5 6 6 6 6 6 6 7 6 6 6 6 6 7 7 6 6 6 6 6 6 6 6 6 7 7 7 7 7 7 7 7
4 4 4 4 4 3 3 3 3 3 3 3 4 4 4 5 5 5 6 7 7 7 7 6 7 7 7 7 6 6 6 6 6 6 6 6 7 6 6 6 6 7 7 8 8 8 8 8 8
4 4 4 4 3 3 3 2 3 3 3 4 4 4 5 5 5 6 7 7 7 8 8 7 7 7 7 7 7 6 7 7 6 7 6 7 7 7 7 7 7 7 7 8 9 9 9 9 9
3 3 3 3 3 3 3 2 3 4 4 4 5 5 5 5 6 6 7 7 7 7 8 8 8 7 8 7 7 7 7 7 6 7 7 7 7 7 7 7 7 7 8 9 9 9 9 10 11
2 3 2 3 3 2 3 3 3 3 4 5 5 5 5 5 6 7 7 7 7 8 8 8 8 8 8 8 8 8 8 7 7 7 7 7 8 8 8 9 8 8 9 9 9 9 10 10 10
3 3 3 3 3 3 3 4 4 4 4 5 5 5 6 6 6 6 7 7 7 7 8 8 8 8 8 8 8 8 8 8 7 7 8 8 8 8 9 8 8 8 9 9 9 9 10 10 9
3 3 4 3 3 3 4 4 4 5 5 5 5 5 6 6 6 6 6 7 7 8 8 8 8 8 8 8 8 7 7 8 8 8 8 9 9 9 9 9 8 9 9 9 9 9 9 9 9
3 3 4 4 4 4 5 5 5 5 5 5 5 6 6 6 6 6 6 6 7 8 8 8 8 8 8 8 7 7 8 8 8 8 9 9 9 10 9 10 9 9 9 10 10 9 10 10 10
3 3 4 4 4 5 5 5 6 6 6 6 6 6 7 7 6 7 6 7 7 8 8 9 9 8 8 7 7 7 8 8 8 9 8 8 8 8 9 9 9 9 10 10 10 11 11 11 11
4 4 4 5 5 5 5 5 6 6 6 6 6 6 7 7 7 7 7 7 7 8 8 8 8 8 7 7 7 7 7 7 8 8 8 8 8 8 8 8 8 9 10 10 10 10 10 10 10
5 4 4 5 6 6 6 6 6 6 6 7 7 7 6 7 7 8 7 7 7 8 8 8 7 7 7 7 7 7 7 7 7 8 9 8 8 8 8 8 8 9 10 10 10 10 10 11 11
5 5 5 5 6 6 7 7 6 6 6 7 7 7 7 7 7 7 7 7 8 8 8 8 7 7 6 6 7 7 8 8 7 8 8 8 8 8 8 8 8 8 9 9 9 9 10 10 10
6 5 6 6 6 6 6 6 6 6 6 6 7 7 7 7 7 7 7 7 7 8 7 7 7 6 6 6 7 7 7 7 7 8 8 8 8 8 8 7 8 8 8 8 9 9 9 9 10
6 6 7 7 6 6 6 6 6 7 7 7 7 7 7 6 7 7 7 7 6 6 6 6 6 6 6 6 6 7 7 7 7 7 7 7 7 6 7 7 7 7 7 7 7 8 8 8 9
7 7 7 7 7 7 7 6 6 7 7 7 7 7 7 6 7 8 7 6 6 5 6 6 6 6 6 6 6 6 7 7 6 6 6 6 5 5 5 5 5 6 6 6 7 7 8 8 8
7 6 6 7 8 8 7 6 6 6 6 6 6 7 7 7 7 7 7 6 5 5 5 5 6 6 6 5 5 6 6 5 5 5 5 5 4 4 4 4 4 5 6 6 6 6 7 8 8
8 7 7 7 8 8 6 6 5 6 6 6 7 7 7 7 7 6 6 6 5 5 5 5 6 5 5 5 5 5 5 5 4 3 3 3 3 3 3 4 4 5 5 6 6 6 7 8 8
8 8 8 8 7 7 7 6 6 6 6 7 7 7 7 6 6 5 5 5 5 5 5 6 6 5 6 5 5 5 5 4 4 4 3 3 3 3 3 4 4 4 5 5 5 6 6 6 6
9 8 8 8 7 7 6 6 6 7 6 7 7 7 7 6 5 5 5 5 5 5 5 6 6 5 5 5 4 4 4 4 4 4 3 3 3 4 4 4 5 5 5 4 4 5 5 5 6
9 9 9 8 8 8 7 7 6 7 6 6 6 6 6 6 5 5 5 5 5 5 5 5 5 5 5 4 4 4 4 4 3 3 3 3 3 4 4 4 4 4 4 4 4 4 5 5 5
10 9 9 9 10 9 8 8 7 7 7 7 6 5 5 6 5 5 5 5 5 5 5 5 5 5 5 5 4 4 4 3 3 3 4 4 3 3 4 5 5 4 4 4 5 6 5 5 5
11 11 11 11 11 10 9 9 8 8 8 7 6 6 6 6 6 5 5 5 5 5 6 6 5 5 6 5 5 4 4 4 4 4 4 4 4 4 4 5 5 5 5 5 6 6 6 5 5
12 12 12 12 11 10 10 9 9 8 8 8 7 6 6 6 6 6 6 6 6 6 6 6 6 5 5 5 5 4 4 5 4 5 5 5 5 5 4 5 5 6 6 6 6 6 6 6 6
14 13 13 13 13 12 11 10 8 8 9 8 8 8 7 7 6 6 6 6 6 6 6 6 6 6 6 5 4 4 5 5 5 5 5 5 5 5 5 5 6 6 7 7 7 7 6 6 6
15 14 14 14 14 13 12 11 9 9 9 9 9 9 9 8 7 7 6 6 7 7 7 6 6 6 6 5 5 5 5 5 5 5 6 5 5 6 5 6 7 7 7 7 8 8 7 7 7
15 15 15 15 15 14 14 12 11 11 11 10 10 10 10 10 9 8 7 7 7 7 7 7 8 8 7 6 6 5 5 5 6 6 6 6 6 6 7 7 7 7 7 7 7 8 8 8 8
16 15 15 16 15 15 15 13 13 13 12 12 12 12 11 10 10 9 9 8 8 8 9 9 9 9 8 8 7 6 6 6 6 7 7 6 6 7 7 8 8 8 8 8 8 8 8 8 8

GEFSSGP_500_meanwind_240.txt.gz
Wind_Speed
2 2 2 2 1 0 1 1 1 1 1 0 0 0 1 1 1 1 1 2 2 2 2 3 4 4 4 4 4 4 4 4 4 4 4 5 4 4 4 4 4 4 5 5 5 6 6 7 7
2 2 2 1 1 0 1 1 1 1 1 1 1 1 1 2 2 2 2 2 3 3 3 4 5 5 5 5 5 5 5 5 4 4 4 5 5 5 5 4 5 5 6 6 6 6 7 7 8
2 2 2 1 1 0 0 1 1 1 1 1 1 2 2 2 2 2 3 3 3 4 4 5 6 6 6 6 5 5 6 6 5 5 5 5 6 6 6 5 5 6 7 7 6 6 7 8 8
1 2 2 1 1 1 1 1 1 1 1 1 2 2 2 3 3 3 3 4 4 4 5 6 6 6 6 6 6 6 6 6 6 6 6 6 6 6 6 6 6 7 7 7 8 7 7 8 9
1 1 1 1 1 1 1 0 0 1 1 2 2 3 3 3 4 4 4 4 5 5 6 6 6 7 7 7 7 7 7 6 6 7 7 7 7 7 7 7 7 7 7 7 8 9 8 9 9
1 0 0 0 1 1 0 0 1 1 2 2 2 3 3 4 4 4 4 5 5 6 6 6 7 7 7 8 8 8 7 7 7 6 6 6 7 7 7 8 8 7 8 8 9 10 10 10 10
1 0 0 0 0 1 1 0 1 1 2 2 3 3 4 4 5 5 5 5 6 6 6 7 7 7 7 7 7 7 7 7 7 7 7 7 7 7 8 8 8 9 9 9 9 9 10 10 10
1 1 0 0 0 1 1 1 1 2 2 3 3 4 5 5 5 5 6 6 6 6 6 6 7 7 7 7 7 7 7 7 7 7 7 7 7 7 8 8 9 9 9 9 9 10 10 11 11
1 1 1 1 0 1 1 1 2 3 3 3 4 4 5 6 6 6 6 6 6 6 6 7 7 7 7 7 7 7 7 7 7 7 7 8 8 8 8 9 9 9 9 9 10 10 11 11 11
1 1 1 0 1 1 1 2 2 3 4 4 4 5 6 6 6 6 6 6 6 7 7 7 7 8 8 7 7 7 7 7 7 8 8 8 8 8 8 9 10 10 9 9 8 10 10 10 11
0 1 1 1 1 1 2 2 3 3 4 4 5 6 6 6 6 6 6 7 7 8 8 8 8 9 8 8 8 7 7 7 8 8 8 8 8 8 8 9 9 9 9 9 8 9 10 10 10
1 2 1 2 2 2 3 3 4 4 5 5 6 6 6 7 7 7 7 8 8 8 9 9 9 9 9 8 8 7 7 7 8 9 9 9 9 8 8 9 9 10 10 10 10 9 9 9 11
3 3 2 3 3 3 4 4 5 5 5 5 6 6 7 7 8 7 8 8 8 9 9 9 9 9 8 7 7 7 7 8 8 8 8 9 9 8 8 8 8 9 9 10 10 11 10 10 11
3 3 3 4 4 4 4 5 5 5 6 6 6 6 7 7 7 7 8 8 9 9 9 9 8 8 7 7 7 7 7 7 7 8 8 8 8 8 8 8 8 9 9 9 9 10 10 10 11
4 4 4 5 5 5 5 6 5 6 6 7 7 6 7 7 7 8 9 9 9 9 8 8 8 7 7 7 7 7 7 7 7 8 7 8 8 8 8 8 8 9 9 9 10 10 10 10 11
5 5 5 5 6 5 6 6 6 6 7 7 7 7 7 8 8 8 8 8 8 8 8 8 7 7 6 6 6 6 6 6 7 7 7 7 7 7 8 8 8 8 8 8 9 9 9 9 10
5 5 5 5 5 6 6 6 6 6 6 6 7 7 7 7 8 9 9 8 8 7 7 7 7 6 6 6 6 6 6 6 7 6 7 7 5 5 6 6 6 7 7 7 7 8 8 8 9
6 5 6 6 7 7 7 7 7 6 6 6 7 7 7 7 7 8 8 7 7 6 6 6 6 5 5 6 6 6 6 6 6 5 6 5 4 4 4 4 5 5 6 6 6 7 7 7 7
7 7 7 8 8 7 7 7 7 7 6 7 7 7 7 7 7 7 7 6 6 5 5 5 5 5 6 6 6 6 5 5 5 4 4 4 4 3 3 3 3 3 5 5 6 6 6 6 7
7 7 7 7 8 8 8 7 7 6 6 6 7 8 7 7 7 7 6 6 6 5 5 5 5 5 5 5 5 5 4 3 4 4 4 3 3 3 3 3 3 3 3 4 5 5 6 6 6
7 8 8 8 8 8 7 6 6 5 5 6 7 7 6 6 6 6 5 5 5 5 4 4 5 5 5 5 4 4 3 4 4 3 3 3 2 2 3 3 3 4 4 4 5 5 5 5 5
8 8 8 8 8 8 7 7 6 6 6 6 6 5 5 5 6 6 5 5 5 4 4 5 5 5 4 4 4 4 4 4 4 3 3 3 3 3 3 3 3 3 4 5 5 5 5 5 6
9 8 8 8 8 8 8 8 7 7 6 6 5 5 6 6 6 6 5 5 4 5 5 4 4 4 5 5 5 5 4 4 4 4 3 3 3 4 4 4 4 3 4 4 4 5 5 5 6
9 9 9 8 8 9 8 8 7 7 7 7 6 6 6 6 6 6 6 5 5 5 5 4 4 5 5 5 5 5 4 4 5 4 4 3 3 4 4 4 4 4 4 5 5 5 5 6 6
10 9 9 9 10 10 8 9 8 7 7 7 7 7 7 7 6 6 6 6 6 6 5 5 5 6 6 6 5 6 6 5 5 4 4 4 4 4 4 4 4 5 5 6 6 6 6 6 6
11 11 11 11 11 11 10 10 9 8 8 8 8 8 8 8 7 6 6 6 6 6 5 5 5 6 6 6 6 6 6 6 5 4 4 5 5 4 5 5 5 5 5 5 6 6 6 6 6
14 13 12 12 12 12 12 11 10 9 9 9 9 9 8 8 8 7 7 7 7 7 6 6 6 6 6 6 6 6 6 6 6 5 5 6 6 5 5 5 5 5 5 6 6 6 7 7 6
14 14 14 14 13 13 13 12 11 11 10 10 10 10 9 9 8 8 8 8 8 8 8 8 7 6 6 6 6 6 6 6 6 5 6 6 6 6 5 5 5 6 6 7 7 7 7 7 7
16 16 15 15 15 14 14 13 12 12 12 11 11 11 10 10 10 9 9 9 9 9 8 8 8 7 7 6 6 6 6 6 6 6 6 6 6 6 6 6 6 6 7 7 8 7 7 7 7
17 17 16 16 16 16 16 15 14 14 14 14 13 13 12 11 10 10 10 10 9 9 9 9 9 9 8 8 7 7 7 7 7 7 7 7 7 7 8 7 7 7 8 8 8 8 7 7 7